www.pogodaiklimat.ru

Погода и климат >> Архив погоды >> Индия >> Тамилнад >> Каньякумари


ПОГОДА в Каньякумари

  • Прогноз погоды в Каньякумари
  • Монитор погоды в Каньякумари

АРХИВ ПОГОДЫ в Каньякумари

Время (UTC), дата Ветер
(напр.,м/с)
 
Видим.   Явления Облачность Т
(С)
Тd
(С)
f
(%)
Тe
(С)
Тes
(С)
Комфортность P
(гПа)
Po
(гПа)
Тmin
(С)
Tmax
(С)
R
(мм)
R24
(мм)
S
(см)
21 11.02 С 5 4000 м 6/1 600 м
[Sc]
+27.4 +21.7 71 +35 +35 очень
душно
1012.7 1008.6
00 12.02 СВ 5 4000 м 5/1 600 м
[Sc Ac trans]
+26.4 +22.6 80 +35 +35 очень
душно
1012.0 1007.9
03 12.02 С 7 10 км 1/1 600 м
[Sc]
+27.4 +22.4 74 +36 +37 очень
душно
1014.1 1010.0 +24.3 +33.9
06 12.02 СВ 7 10 км 4/4 600 м
[Cu Sc]
+31.0 +23.2 63 +41 +44 опасность
перегрева
1014.2 1010.1
09 12.02 С 6 10 км 1/1 600 м
[Sc]
+33.6 +21.9 50 +42 +47 опасность
перегрева
1011.2 1007.2
12 12.02 СВ 7 10 км ясно +32.0 +22.4 57 +41 +42 опасность
перегрева
1011.0 1007.0 +33.8
15 12.02 С 8 10 км ясно +30.0 +24.0 70 +41 +41 опасность
перегрева
1014.0 1009.9
18 12.02 СВ 9 4000 м 1/1 600 м
[Sc]
+27.6 +22.9 76 +37 +37 очень
душно
1014.8 1010.7
21 12.02 С 9 4000 м 1/1 600 м
[Sc]
+27.8 +24.3 81 +39 +39 очень
душно
1013.7 1009.6
00 13.02 С 8 4000 м 1/1 600 м
[Sc]
+26.2 +22.3 79 +34 +34 очень
душно
1013.3 1009.2
03 13.02 С 9 10 км ясно +27.6 +22.9 76 +37 +38 очень
душно
1015.5 1011.4 +23.6 +33.8
06 13.02 С 5 10 км 1/1 600 м
[Sc]
+30.4 +23.1 65 +41 +49 опасность
перегрева
1015.1 1011.0
09 13.02 С 6 10 км 1/1 600 м
[Sc]
+34.6 +23.4 52 +45 +50 опасность
перегрева
1011.9 1007.8
12 13.02 С 6 10 км 3/3 600 м
[Sc]
+31.0 +25.4 72 +45 +45 опасность
перегрева
1011.6 1007.5 +35.0
15 13.02 С 5 4000 м 1/1 600 м
[Sc]
+30.0 +24.3 72 +42 +42 опасность
перегрева
1013.8 1009.7
18 13.02 СВ 4 4000 м 5/3 600 м
[Sc Ac trans Ci fib]
+27.8 +24.0 80 +39 +39 очень
душно
1014.6 1010.5
21 13.02 С 4 4000 м 3/1 600 м
[Sc Ci fib]
+27.2 +24.0 83 +38 +38 очень
душно
1013.0 1008.9
00 14.02 СВ 6 4000 м 4/3 600 м
[Sc Ci fib]
+26.6 +22.5 78 +35 +35 очень
душно
1012.5 1008.4
03 14.02 СВ 6 10 км 1/1 600 м
[Sc]
+28.0 +22.4 72 +37 +39 очень
душно
1013.7 1009.6 +24.6 +35.0
06 14.02 С 6 10 км 1/1 600 м
[Sc]
+32.0 +24.3 64 +44 +51 опасность
перегрева
1014.3 1009.3
09 14.02 С 5 10 км 3/1 600 м
[Sc Ci fib]
+32.6 +27.4 74 +51 +58 опасность
перегрева
1010.3 1006.3
12 14.02 СВ 5 10 км 4/1 600 м
[Sc Ci fib]
+31.0 +26.8 78 +48 +48 опасность
перегрева
1009.6 1005.5 +34.8
15 14.02 С 4 4000 м 1/1 600 м
[Sc]
+29.6 +25.4 78 +43 +43 опасность
перегрева
1012.5 1008.4
18 14.02 СВ 3 4000 м 3/3 600 м
[Sc]
+29.0 +25.6 82 +43 +43 опасность
перегрева
1013.8 1009.7
21 14.02 С 3 4000 м 4/3 600 м
[Sc Ci fib]
+28.0 +25.2 85 +41 +41 опасность
перегрева
1012.4 1008.3
00 15.02 СВ 3 4000 м 3/1 600 м
[Sc Ci fib]
+27.6 +24.4 83 +39 +39 очень
душно
1011.9 1007.8
03 15.02 С 3 10 км 1/1 600 м
[Sc]
+28.2 +24.2 79 +39 +43 очень
душно
1014.2 1010.1 +24.8 +34.8
06 15.02 С 5 10 км 4/3 600 м
[Sc Ci fib]
+31.8 +25.0 67 +45 +52 опасность
перегрева
1014.1 1010.0
09 15.02 СВ 4 10 км 4/4 600 м
[Cb calv]
+30.8 +26.3 77 +47 +52 опасность
перегрева
1011.3 1007.4
12 15.02 СВ 5 10 км 4/4 600 м
[Sc]
+29.2 +26.7 86 +45 +45 опасность
перегрева
1011.4 1007.3 +34.0
15 15.02 СВ 3 4000 м 1/1 600 м
[Sc]
+27.6 +24.4 83 +39 +39 очень
душно
1013.9 1009.8
18 15.02 СВ 2 4000 м 1/1 600 м
[Sc]
+27.0 +24.4 86 +38 +38 очень
душно
1014.7 1010.0
21 15.02 СВ 3 4000 м 3/3 600 м
[Sc]
+27.2 +24.6 86 +39 +39 очень
душно
1013.0 1008.9
00 16.02 С 2 4000 м 6/4 600 м
[Sc Ac trans]
+26.2 +23.6 86 +36 +36 очень
душно
1012.1 1008.0
03 16.02 С 2 10 км 1/1 600 м
[Sc]
+29.2 +24.9 78 +42 +47 опасность
перегрева
1014.3 1010.2 +24.9 +34.0
06 16.02 В 2 10 км 4/4 600 м
[Cu Sc]
+32.2 +26.7 73 +50 +61 опасность
перегрева
1014.2 1010.2
09 16.02 В 2 10 км ясно +32.2 +27.0 74 +50 +65 опасность
перегрева
1011.2 1007.2
12 16.02 В 2 10 км 9/4 600 м
[Cb calv Ac As]
+30.6 +26.7 80 +48 +48 опасность
перегрева
1011.1 1007.0 +32.3
15 16.02 В 2 4000 м 8/4 600 м
[Cu Sc Ac trans]
+28.2 +25.1 83 +41 +41 опасность
перегрева
1014.4 1010.3
18 16.02 штиль 0 4000 м 1/1
[Sc]
+28.2 +25.1 83 +41 +41 опасность
перегрева
1015.1 1011.0
21 16.02 штиль 0 4000 м 1/1 600 м
[Sc]
+26.2 +23.6 86 +36 +36 очень
душно
1012.3 1008.2
00 17.02 Ю 1 4000 м ясно +26.2 +25.1 94 +38 +38 очень
душно
1011.9 1007.8
03 17.02 З 1 10 км ясно +28.2 +25.1 83 +41 +47 опасность
перегрева
1013.3 1009.2 +24.4 +32.3
06 17.02 Ю 2 10 км 9/4 600 м
[Cb calv Ac As]
+30.8 +26.0 76 +46 +51 опасность
перегрева
1012.8 1008.7
09 17.02 С 6 10 км 6/1 600 м
[Cu med, cong Ci sp]
+33.0 +26.6 69 +50 +55 опасность
перегрева
1009.2 1005.2
12 17.02 З 5 10 км 6/3 600 м
[Sc diur, vesp Ci sp]
+30.0 +26.4 81 +46 +46 опасность
перегрева
1008.8 1004.7 +33.4
15 17.02 З 3 4000 м 6/3 600 м
[Sc Ac trans Ci sp]
+29.0 +25.0 79 +42 +42 опасность
перегрева
1010.5 1006.4
18 17.02 З 3 4000 м 5/3 600 м
[Sc Ci sp]
+28.2 +25.4 85 +41 +41 опасность
перегрева
1011.2 1007.1
21 17.02 З 4 4000 м 5/3 600 м
[Sc Ac trans Ci sp]
+27.0 +24.1 84 +37 +37 очень
душно
1009.5 1005.4
00 18.02 З 4 4000 м 5/3 600 м
[Sc Ac trans Ci sp]
+26.0 +23.4 86 +35 +35 очень
душно
1009.5 1005.4
03 18.02 З 4 4000 м мгла 1/1 600 м
[Sc]
+27.6 +23.8 80 +38 +41 очень
душно
1012.3 1008.2 +24.2 +33.4
06 18.02 З 7 10 км 1/1 600 м
[Cu hum]
+31.6 +25.7 71 +47 +52 опасность
перегрева
1011.9 1007.9
09 18.02 З 5 10 км 1/1 600 м
[Cu hum]
+32.0 +24.9 66 +45 +52 опасность
перегрева
1008.7 1004.7
12 18.02 З 4 10 км 6/3 600 м
[Cb calv Ac trans Ci sp]
+30.6 +25.8 76 +46 +46 опасность
перегрева
1008.1 1004.0 +33.1
15 18.02 З 3 4000 м 5/3 600 м
[Sc diur, vesp Ac trans Ci sp]
+29.0 +25.9 83 +43 +43 опасность
перегрева
1010.0 1005.9
18 18.02 З 3 4000 м 6/3 600 м
[Sc diur, vesp Ac trans]
+28.6 +24.9 80 +41 +41 опасность
перегрева
1010.8 1006.7

 

Местоположение метеостанции Каньякумари (Тамилнад, Индия): широта 8.08 долгота 77.50 высота над уровнем моря 37 м.

В архиве по умолчанию представлена погода в Каньякумари за последнюю неделю. Архивные данные за месяц целиком и за предыдущие месяцы, начиная с января 2011 года, Вы можете получить, выбрав интересующий диапазон дат из раскрывающегося списка и нажав кнопку "Ввод!".


*Определитесь, кто Вы:
робот инопланетянин человек

Внимание! Время в таблицах - всемирное. Для получения местного времени необходимо прибавить поправку, которая равна 5.5 ч.

Смотрите также архив погоды в соседних городах и на ближайших метеорологических станциях:

Погода в Тривандрам аэропорту (Керала, Индия) (74 км)
Погода в Тривандраме (Керала, Индия) (75 км)
Погода в Палайямкоттае (Тамилнад, Индия) (77 км)
Погода в Тутикорине (Тамилнад, Индия) (106 км)
Погода в Пуналере (Керала, Индия) (121 км)
Погода в Ковилангуламе (Тамилнад, Индия) (175 км)
Погода в Коттаяме (Керала, Индия) (189 км)
Погода в Алаппуже (Керала, Индия) (202 км)
Погода в Мадурае (Тамилнад, Индия) (205 км)
Погода в Мадурае (Тамилнад, Индия) (216 км)

Пояснения к столбцам:

Ветер - указаны скорость ветра в м/с - средняя за 10 мин, порывы в срок и между сроками (в фигурных скобках) и направление, откуда дует ветер: С - северный, СВ - северо-восточный, В - восточный, ЮВ - юго-восточный, Ю - южный, ЮЗ - юго-западный, З - западный, СЗ - северо-западный.
Видимость - горизонтальная дальность видимости в метрах или километрах. При видимости от 1 до 10 км при отсутствии осадков обычно наблюдается дымка, при ухудшении видимости до 1 км и менее - туман. В сухую погоду видимость может ухудшаться дымом, пылью или мглою.
Явления - указаны атмосферные явления, наблюдавшиеся в срок или в последний час перед сроком; фигурными скобками обозначены явления, наблюдавшиеся между сроками (за 1-3 часа до срока); квадратными скобками обозначены град или гололедные отложения с указанием их диаметра в мм.
Облачность - указаны через наклонную черту общая и нижняя облачность в баллах и высота нижней границы облаков в метрах; квадратными скобками обозначены формы облаков: Ci - перистые, Cs - перисто-слоистые, Cc - перисто-кучевые, Ac - высококучевые, As - высокослоистые, Sc - слоисто-кучевые, Ns - слоисто-дождевые, Cu - кучевые, Cb - кучево-дождевые. Подробнее классификацию облаков см. в Атласе облаков (PDF).
T - Температура воздуха - температура, измеренная на высоте 2 м над землей.
Td - Температура точки росы - температура, при понижении до которой содержащийся в воздухе водяной пар достигнет насыщения.
f - Относительная влажность воздуха - влажноcть воздуха, измеренная на высоте 2 м над землей.
Te - Эффективная температура - температура, которую ощущает одетый по сезону человек в тени. Характеристика душности погоды. При расчете учитывается влияние влажности воздуха и скорости ветра на теплоощущения человека.
Tes - Эффективная температура на солнце - температура, которую ощущает человек, с поправкой на солнечный нагрев. Характеристика знойности погоды. Зависит от высоты солнца над горизонтом, облачности и скорости ветра. Ночью, в пасмурную погоду, а также при ветре 12 м/с и более поправка равна нулю.
P - Атмосферное давление - приведенное к уровню моря атмосферное давление.
Po - Атмосферное давление - измеренное на уровне метеостанции атмосферное давление.
Tmin - Минимальная температура - минимум температуры воздуха на высоте 2 м над землей.
Tmax - Максимальная температура - максимум температуры воздуха на высоте 2 м над землей.
R - Количество осадков - Количество выпавших осадков за период времени, мм. При наведении курсора мыши на число - период времени, за который выпало указанное количество осадков.
R24 - Количество осадков - Количество выпавших осадков за 24 часа, мм.
S - Снежный покров - Высота снежного покрова, см. При наведении курсора мыши на число - состояние снежного покрова и степень покрытия местности в баллах.